GALAXY 3C (G-3C)

Last updated on Thu Nov 21 2024 00:02:40 GMT+0000 (Coordinated Universal Time)

1 27445U 02030A 24325.26689912 -.00000150 00000+0 00000+0 0 9991 2 27445 2.2613 85.1651 0002703 73.1214 262.7297 1.00271912 40736
UTC large
Height (km)
Speed (km/s)
/
Latitude / Longitude
Inclination (degrees)
Orbital Period (minutes)
Azimuth
Elevation
Range (km)
Doppler Factor

Next 0 passes for location: London (51.5072 / 0.1276)

Sorry there are no passes over London.